| time (UTC) | temp F | wind direction | speed MPH | gust MPH | rain 1hr in | rain 24hr in | rain mn in | humidity % | barometer mb |
| 20260503203533 | 57 | 296 | 5.0 | 6.0 | 0.00 | 0.00 | 0.00 | 87 | 1010.4 |
| 20260503203020 | 57 | 0 | 0.0 | 0.0 | 0.00 | 0.00 | 0.00 | 88 | 1010.4 |
| 20260503202507 | 57 | 0 | 0.0 | 0.0 | 0.00 | 0.00 | 0.00 | 88 | 1010.4 |
| 20260503201954 | 56 | 0 | 0.0 | 3.0 | 0.00 | 0.00 | 0.00 | 89 | 1010.4 |
| 20260503201441 | 56 | 0 | 0.0 | 3.0 | 0.00 | 0.00 | 0.00 | 89 | 1010.4 |
| 20260503200928 | 55 | 0 | 0.0 | 3.0 | 0.00 | 0.00 | 0.00 | 90 | 1010.4 |
| 20260503200415 | 54 | 295 | 2.0 | 3.0 | 0.00 | 0.00 | 0.00 | 90 | 1010.4 |
| 20260503195902 | 54 | 268 | 2.0 | 6.0 | 0.00 | 0.00 | 0.00 | 90 | 1010.5 |
| 20260503195349 | 54 | 319 | 5.0 | 6.0 | 0.00 | 0.00 | 0.00 | 90 | 1010.6 |
| 20260503194836 | 53 | 305 | 3.0 | 6.0 | 0.00 | 0.00 | 0.00 | 90 | 1010.6 |
| 20260503194324 | 53 | 312 | 5.0 | 6.0 | 0.00 | 0.00 | 0.00 | 90 | 1010.6 |
| 20260503193810 | 53 | 0 | 0.0 | 6.0 | 0.00 | 0.00 | 0.00 | 90 | 1010.6 |
| 20260503193257 | 53 | 312 | 4.0 | 6.0 | 0.00 | 0.00 | 0.00 | 90 | 1010.6 |
| 20260503192231 | 54 | 305 | 5.0 | 8.0 | 0.00 | 0.00 | 0.00 | 90 | 1010.8 |
| 20260503191718 | 54 | 306 | 6.0 | 8.0 | 0.00 | 0.00 | 0.00 | 90 | 1010.9 |
| 20260503191205 | 55 | 306 | 5.0 | 8.0 | 0.00 | 0.00 | 0.00 | 90 | 1010.9 |
| 20260503190652 | 55 | 315 | 4.0 | 8.0 | 0.00 | 0.00 | 0.00 | 89 | 1011.0 |
| 20260503190139 | 56 | 303 | 4.0 | 5.0 | 0.00 | 0.00 | 0.00 | 90 | 1010.9 |
| 20260503185626 | 56 | 313 | 2.0 | 5.0 | 0.00 | 0.00 | 0.00 | 91 | 1011.0 |
| 20260503184600 | 55 | 0 | 0.0 | 6.0 | 0.00 | 0.00 | 0.00 | 91 | 1010.9 |
| 20260503184047 | 54 | 308 | 2.0 | 6.0 | 0.00 | 0.00 | 0.00 | 91 | 1011.0 |
| 20260503183534 | 54 | 285 | 2.0 | 6.0 | 0.00 | 0.00 | 0.00 | 91 | 1011.0 |
| 20260503183021 | 53 | 298 | 4.0 | 8.0 | 0.00 | 0.00 | 0.00 | 91 | 1011.0 |
| 20260503181442 | 54 | 298 | 4.0 | 7.0 | 0.00 | 0.00 | 0.00 | 92 | 1011.0 |
| 20260503180929 | 54 | 301 | 4.0 | 6.0 | 0.00 | 0.00 | 0.00 | 92 | 1010.9 |
| 20260503180416 | 54 | 303 | 4.0 | 6.0 | 0.00 | 0.00 | 0.00 | 92 | 1010.9 |
| 20260503175903 | 53 | 281 | 2.0 | 7.0 | 0.00 | 0.00 | 0.00 | 92 | 1010.9 |
| 20260503175350 | 53 | 306 | 2.0 | 7.0 | 0.00 | 0.00 | 0.00 | 92 | 1011.0 |
| 20260503174837 | 53 | 280 | 3.0 | 7.0 | 0.00 | 0.00 | 0.00 | 92 | 1010.9 |
| 20260503174324 | 53 | 287 | 3.0 | 7.0 | 0.00 | 0.00 | 0.00 | 92 | 1011.0 |
| 20260503173811 | 53 | 261 | 4.0 | 7.0 | 0.00 | 0.00 | 0.00 | 92 | 1011.0 |
| 20260503173258 | 53 | 306 | 1.0 | 7.0 | 0.00 | 0.00 | 0.00 | 92 | 1011.1 |
| 20260503172232 | 53 | 285 | 2.0 | 6.0 | 0.00 | 0.00 | 0.00 | 93 | 1011.0 |
| 20260503171719 | 52 | 284 | 3.0 | 6.0 | 0.00 | 0.00 | 0.00 | 92 | 1011.0 |
| 20260503170653 | 52 | 302 | 3.0 | 7.0 | 0.00 | 0.00 | 0.00 | 93 | 1011.0 |
| 20260503150653 | 51 | 0 | 0.0 | 0.0 | 0.00 | 0.00 | 0.00 | 93 | 1010.8 |
| 20260503150140 | 50 | 0 | 0.0 | 0.0 | 0.00 | 0.00 | 0.00 | 93 | 1010.8 |
| 20260503130654 | 46 | 0 | 0.0 | 0.0 | 0.00 | 0.00 | 0.00 | 93 | 1010.3 |
| 20260503130141 | 46 | 0 | 0.0 | 0.0 | 0.00 | 0.00 | 0.00 | 93 | 1010.3 |
| 20260503110655 | 46 | 0 | 0.0 | 0.0 | 0.00 | 0.00 | 0.00 | 93 | 1010.6 |
| 20260503110142 | 46 | 0 | 0.0 | 0.0 | 0.00 | 0.00 | 0.00 | 93 | 1010.6 |
| 20260503090143 | 46 | 0 | 0.0 | 0.0 | 0.00 | 0.00 | 0.00 | 92 | 1011.2 |
| 20260503081446 | 46 | 0 | 0.0 | 0.0 | 0.00 | 0.00 | 0.00 | 91 | 1011.5 |
| 20260503080933 | 46 | 0 | 0.0 | 0.0 | 0.00 | 0.00 | 0.00 | 91 | 1011.6 |
| 20260503080420 | 47 | 0 | 0.0 | 0.0 | 0.00 | 0.00 | 0.00 | 91 | 1011.6 |
| 20260503072749 | 47 | 0 | 0.0 | 0.0 | 0.00 | 0.00 | 0.00 | 91 | 1011.8 |
| 20260503072236 | 47 | 0 | 0.0 | 0.0 | 0.00 | 0.00 | 0.00 | 91 | 1011.8 |
| 20260503071723 | 47 | 0 | 0.0 | 0.0 | 0.00 | 0.00 | 0.00 | 91 | 1011.8 |
| 20260503071210 | 47 | 0 | 0.0 | 0.0 | 0.00 | 0.00 | 0.00 | 91 | 1011.9 |
| 20260503070657 | 47 | 0 | 0.0 | 0.0 | 0.00 | 0.00 | 0.00 | 91 | 1011.9 |
| 20260503054842 | 49 | 0 | 0.0 | 0.0 | 0.00 | 0.00 | 0.00 | 90 | 1012.2 |
| 20260503054329 | 49 | 0 | 0.0 | 0.0 | 0.00 | 0.00 | 0.00 | 90 | 1012.3 |
| 20260503053816 | 49 | 0 | 0.0 | 0.0 | 0.00 | 0.00 | 0.00 | 90 | 1012.3 |
| 20260503052750 | 49 | 0 | 0.0 | 0.0 | 0.00 | 0.00 | 0.00 | 90 | 1012.5 |
| 20260503052237 | 49 | 0 | 0.0 | 0.0 | 0.00 | 0.00 | 0.00 | 90 | 1012.5 |
| 20260503051724 | 49 | 0 | 0.0 | 0.0 | 0.00 | 0.00 | 0.00 | 90 | 1012.5 |
| 20260503051215 | 49 | 0 | 0.0 | 0.0 | 0.00 | 0.00 | 0.00 | 89 | 1012.6 |
| 20260503050658 | 50 | 0 | 0.0 | 0.0 | 0.00 | 0.00 | 0.00 | 89 | 1012.6 |
| 20260503050147 | 50 | 0 | 0.0 | 0.0 | 0.00 | 0.00 | 0.00 | 89 | 1012.7 |
| 20260503045632 | 50 | 0 | 0.0 | 0.0 | 0.00 | 0.00 | 0.00 | 89 | 1012.5 |
| 20260503045119 | 50 | 0 | 0.0 | 0.0 | 0.00 | 0.00 | 0.00 | 89 | 1012.4 |
| 20260503044606 | 50 | 0 | 0.0 | 0.0 | 0.00 | 0.00 | 0.00 | 89 | 1012.4 |
| 20260503044053 | 50 | 0 | 0.0 | 0.0 | 0.00 | 0.00 | 0.00 | 89 | 1012.3 |
| 20260503043540 | 51 | 0 | 0.0 | 0.0 | 0.00 | 0.00 | 0.00 | 89 | 1012.4 |
| 20260503043027 | 51 | 0 | 0.0 | 0.0 | 0.00 | 0.00 | 0.00 | 88 | 1012.3 |
| 20260503042001 | 51 | 0 | 0.0 | 0.0 | 0.00 | 0.00 | 0.00 | 88 | 1012.2 |
| 20260503041448 | 51 | 0 | 0.0 | 0.0 | 0.00 | 0.00 | 0.00 | 88 | 1012.1 |
| 20260503040934 | 51 | 0 | 0.0 | 0.0 | 0.00 | 0.00 | 0.00 | 88 | 1012.1 |
| 20260503040421 | 51 | 0 | 0.0 | 0.0 | 0.00 | 0.00 | 0.00 | 88 | 1012.1 |
| 20260503035908 | 51 | 0 | 0.0 | 0.0 | 0.00 | 0.00 | 0.00 | 88 | 1012.1 |
| 20260503034843 | 51 | 85 | 0.0 | 5.0 | 0.00 | 0.00 | 0.00 | 88 | 1012.0 |
| 20260503034329 | 51 | 0 | 0.0 | 5.0 | 0.00 | 0.00 | 0.00 | 87 | 1011.9 |
| 20260503033816 | 51 | 0 | 0.0 | 0.0 | 0.00 | 0.00 | 0.00 | 87 | 1011.9 |
| 20260503033304 | 51 | 0 | 0.0 | 0.0 | 0.00 | 0.00 | 0.00 | 87 | 1011.9 |
| 20260503032750 | 51 | 0 | 0.0 | 0.0 | 0.00 | 0.00 | 0.00 | 87 | 1011.9 |
| 20260503032237 | 51 | 0 | 0.0 | 0.0 | 0.00 | 0.00 | 0.00 | 87 | 1011.8 |
| 20260503031724 | 52 | 0 | 0.0 | 5.0 | 0.00 | 0.00 | 0.00 | 87 | 1011.9 |
| 20260503031211 | 52 | 0 | 0.0 | 5.0 | 0.00 | 0.00 | 0.00 | 87 | 1011.9 |
| 20260503030658 | 52 | 310 | 0.0 | 5.0 | 0.00 | 0.00 | 0.00 | 86 | 1011.9 |
| 20260503030147 | 52 | 0 | 0.0 | 0.0 | 0.00 | 0.00 | 0.00 | 86 | 1011.9 |
| 20260503025632 | 52 | 0 | 0.0 | 0.0 | 0.00 | 0.00 | 0.00 | 86 | 1011.9 |
| 20260503025119 | 52 | 0 | 0.0 | 6.0 | 0.00 | 0.00 | 0.00 | 86 | 1011.9 |
| 20260503024606 | 52 | 0 | 0.0 | 6.0 | 0.00 | 0.00 | 0.00 | 86 | 1012.2 |
| 20260503024053 | 52 | 68 | 0.0 | 6.0 | 0.00 | 0.00 | 0.00 | 86 | 1012.3 |
| 20260503023540 | 53 | 138 | 2.0 | 7.0 | 0.00 | 0.00 | 0.00 | 86 | 1012.3 |
| 20260503023027 | 53 | 71 | 3.0 | 7.0 | 0.00 | 0.00 | 0.00 | 85 | 1012.2 |
| 20260503022515 | 53 | 0 | 0.0 | 7.0 | 0.00 | 0.00 | 0.00 | 86 | 1012.2 |
| 20260503022001 | 53 | 149 | 1.0 | 4.0 | 0.00 | 0.00 | 0.00 | 85 | 1012.2 |
| 20260503021448 | 53 | 39 | 0.0 | 2.0 | 0.00 | 0.00 | 0.00 | 85 | 1012.3 |
| 20260503020935 | 53 | 40 | 0.0 | 9.0 | 0.00 | 0.00 | 0.00 | 86 | 1012.3 |
| 20260503020422 | 53 | 77 | 4.0 | 9.0 | 0.00 | 0.00 | 0.00 | 85 | 1012.4 |
| 20260503015909 | 53 | 33 | 2.0 | 9.0 | 0.00 | 0.00 | 0.00 | 85 | 1012.4 |
| 20260503015356 | 53 | 102 | 1.0 | 5.0 | 0.00 | 0.00 | 0.00 | 85 | 1012.2 |
| 20260503014844 | 53 | 82 | 2.0 | 10.0 | 0.00 | 0.00 | 0.00 | 85 | 1012.2 |
| 20260503014330 | 54 | 33 | 4.0 | 10.0 | 0.00 | 0.00 | 0.00 | 85 | 1012.2 |
| 20260503013817 | 53 | 357 | 6.0 | 10.0 | 0.00 | 0.00 | 0.00 | 85 | 1012.3 |
| 20260503013304 | 53 | 42 | 5.0 | 14.0 | 0.00 | 0.00 | 0.00 | 85 | 1012.3 |
| 20260503012751 | 53 | 42 | 2.0 | 14.0 | 0.00 | 0.00 | 0.00 | 85 | 1012.3 |
| 20260503012238 | 53 | 78 | 5.0 | 14.0 | 0.00 | 0.00 | 0.00 | 84 | 1012.3 |
| 20260503011726 | 53 | 64 | 3.0 | 11.0 | 0.00 | 0.00 | 0.00 | 85 | 1012.4 |
| 20260503011212 | 53 | 86 | 1.0 | 11.0 | 0.00 | 0.00 | 0.00 | 85 | 1012.4 |
| 20260503010659 | 53 | 65 | 4.0 | 10.0 | 0.00 | 0.00 | 0.00 | 84 | 1012.5 |
| 20260503010149 | 53 | 352 | 7.0 | 14.0 | 0.00 | 0.00 | 0.00 | 84 | 1012.5 |
| 20260503005634 | 53 | 337 | 3.0 | 14.0 | 0.00 | 0.00 | 0.00 | 84 | 1012.5 |
| 20260503005120 | 53 | 350 | 4.0 | 14.0 | 0.00 | 0.00 | 0.00 | 85 | 1012.5 |
| 20260503004704 | 53 | 0 | 0.0 | 11.0 | 0.00 | 0.00 | 0.00 | 84 | 1012.5 |
| 20260503004607 | 53 | 0 | 0.0 | 11.0 | 0.00 | 0.00 | 0.00 | 84 | 1012.5 |
| 20260503004054 | 53 | 99 | 3.0 | 11.0 | 0.00 | 0.00 | 0.00 | 84 | 1012.4 |
| 20260503003541 | 53 | 306 | 4.0 | 12.0 | 0.00 | 0.00 | 0.00 | 85 | 1012.5 |
| 20260503003028 | 53 | 86 | 4.0 | 12.0 | 0.00 | 0.00 | 0.00 | 85 | 1012.4 |
| 20260503002517 | 53 | 324 | 4.0 | 12.0 | 0.00 | 0.00 | 0.00 | 85 | 1012.3 |
| 20260503002002 | 53 | 324 | 4.0 | 11.0 | 0.00 | 0.00 | 0.00 | 85 | 1012.5 |
| 20260503001449 | 53 | 336 | 2.0 | 11.0 | 0.00 | 0.00 | 0.00 | 85 | 1012.5 |
| 20260503000937 | 53 | 86 | 6.0 | 11.0 | 0.00 | 0.00 | 0.00 | 84 | 1012.5 |
| 20260503000423 | 53 | 14 | 3.0 | 11.0 | 0.00 | 0.00 | 0.00 | 85 | 1012.6 |
| 20260502235910 | 53 | 121 | 4.0 | 11.0 | 0.00 | 0.00 | 0.00 | 85 | 1012.6 |
| 20260502235357 | 53 | 319 | 3.0 | 11.0 | 0.00 | 0.00 | 0.00 | 85 | 1012.6 |
| 20260502234844 | 53 | 9 | 5.0 | 10.0 | 0.00 | 0.00 | 0.00 | 85 | 1012.8 |
| 20260502234332 | 53 | 39 | 5.0 | 10.0 | 0.00 | 0.00 | 0.00 | 85 | 1012.8 |
| 20260502233818 | 53 | 309 | 4.0 | 12.0 | 0.00 | 0.00 | 0.00 | 85 | 1012.8 |
| 20260502233305 | 53 | 282 | 5.0 | 12.0 | 0.00 | 0.00 | 0.00 | 85 | 1012.9 |
| 20260502232753 | 53 | 357 | 5.0 | 12.0 | 0.00 | 0.00 | 0.00 | 85 | 1012.9 |
| 20260502232239 | 53 | 29 | 4.0 | 10.0 | 0.00 | 0.00 | 0.00 | 85 | 1012.9 |
| 20260502231727 | 53 | 9 | 5.0 | 13.0 | 0.00 | 0.00 | 0.00 | 85 | 1013.0 |
| 20260502231213 | 53 | 287 | 6.0 | 13.0 | 0.00 | 0.00 | 0.00 | 85 | 1013.2 |
| 20260502230700 | 53 | 327 | 6.0 | 13.0 | 0.00 | 0.00 | 0.00 | 85 | 1013.2 |
| 20260502230147 | 52 | 26 | 6.0 | 13.0 | 0.00 | 0.00 | 0.00 | 85 | 1013.3 |
| 20260502225634 | 53 | 15 | 7.0 | 13.0 | 0.00 | 0.00 | 0.00 | 85 | 1013.3 |
| 20260502225122 | 53 | 312 | 6.0 | 13.0 | 0.00 | 0.00 | 0.00 | 85 | 1013.5 |
| 20260502224608 | 53 | 36 | 4.0 | 10.0 | 0.00 | 0.00 | 0.00 | 85 | 1013.6 |
| 20260502224055 | 53 | 355 | 5.0 | 12.0 | 0.00 | 0.00 | 0.00 | 85 | 1013.7 |
| 20260502223542 | 54 | 16 | 6.0 | 12.0 | 0.00 | 0.00 | 0.00 | 84 | 1013.7 |
| 20260502223029 | 54 | 334 | 5.0 | 12.0 | 0.00 | 0.00 | 0.00 | 85 | 1013.8 |
| 20260502222516 | 53 | 63 | 2.0 | 10.0 | 0.00 | 0.00 | 0.00 | 86 | 1013.9 |
| 20260502222005 | 53 | 309 | 3.0 | 10.0 | 0.00 | 0.00 | 0.00 | 86 | 1013.8 |
| 20260502221450 | 53 | 317 | 5.0 | 10.0 | 0.00 | 0.00 | 0.00 | 85 | 1013.9 |
| 20260502220937 | 54 | 26 | 4.0 | 10.0 | 0.00 | 0.00 | 0.00 | 85 | 1014.0 |
| 20260502220424 | 54 | 67 | 5.0 | 11.0 | 0.00 | 0.00 | 0.00 | 85 | 1014.0 |
| 20260502215911 | 53 | 352 | 6.0 | 11.0 | 0.00 | 0.00 | 0.00 | 85 | 1014.1 |
| 20260502215358 | 53 | 315 | 5.0 | 11.0 | 0.00 | 0.00 | 0.00 | 86 | 1014.0 |
| 20260502214845 | 53 | 310 | 6.0 | 10.0 | 0.00 | 0.00 | 0.00 | 85 | 1014.1 |
| 20260502214332 | 53 | 313 | 5.0 | 10.0 | 0.00 | 0.00 | 0.00 | 85 | 1014.1 |
| 20260502213819 | 53 | 334 | 5.0 | 5.0 | 0.00 | 0.00 | 0.00 | 86 | 1014.1 |
| 20260502213306 | 53 | 0 | 4.0 | 10.0 | 0.00 | 0.00 | 0.00 | 85 | 1014.2 |
| 20260502212753 | 53 | 320 | 3.0 | 10.0 | 0.00 | 0.00 | 0.00 | 85 | 1014.3 |
| 20260502211727 | 53 | 75 | 0.0 | 10.0 | 0.00 | 0.00 | 0.00 | 85 | 1014.4 |
| 20260502211214 | 53 | 1 | 1.0 | 10.0 | 0.00 | 0.00 | 0.00 | 85 | 1014.4 |
| 20260502210701 | 53 | 336 | 1.0 | 10.0 | 0.00 | 0.00 | 0.00 | 85 | 1014.4 |
| 20260502210148 | 53 | 4 | 3.0 | 10.0 | 0.00 | 0.00 | 0.00 | 85 | 1014.5 |
| 20260502205635 | 52 | 5 | 1.0 | 10.0 | 0.00 | 0.00 | 0.00 | 85 | 1014.6 |
| 20260502205122 | 53 | 22 | 4.0 | 10.0 | 0.00 | 0.00 | 0.00 | 85 | 1014.6 |
| 20260502204056 | 53 | 23 | 3.0 | 7.0 | 0.00 | 0.00 | 0.00 | 85 | 1014.7 |